User: anonymous   Login
Location: Fort Wayne
(41.1310°N, 85.1290°W)
Time: 18:58:24
(UTC-05:00)
Language:

Meteor 2-9 Rocket - Orbit

View from above orbital plane
View from above orbital plane
View from above satellite
View from above satellite

Ground track
Ground track

The orbit data is extracted from the following two-line orbital elements,

1 13719U 82116B   16342.68733894 +.00000034 +00000-0 +10869-4 0  9998
2 13719 081.2533 187.9647 0071705 178.2544 246.3462 14.14595233753298
Epoch (UTC): 07 December 2016 16:29:46
Eccentricity: 0.0071705
inclination: 81.2533°
perigee height: 792 km
apogee height: 895 km
right ascension of ascending node: 187.9647°
argument of perigee: 178.2544°
revolutions per day: 14.14595233
mean anomaly at epoch: 246.3462°
orbit number at epoch: 75329

The dashed part of the orbit path shows where the satellite is in the earth's shadow,  

DLR